STARLINK-1536, 46070

Orbit data source: Space-Track

STARLINK-1536, 46070 is a payload satellite owned by SpaceX/Seattle (US) in LEO that was launched on Fri, 07 Aug 2020 UTC via an FALCON 9 launch vehicle from the Air Force Eastern Test Range (AFETR). Payload-class satellites include a variety of spacecraft equipped with specific instruments for various scientific and technological missions. These include communications satellites like Starlink; space stations such as the ISS; scientific satellites like the Hubble; Earth observation satellites from companies like Planet Labs, Umbra, and HawkEye 360; GPS; miniature CubeSats for education and research; and military/defense satellites.

Loading next visibility...
Identifier
46070, 2020-055AV
Orbit
LEO
Country
Flag of USUS
Related business
Manufacturer
SpaceX/Seattle
Mission
Operational Commercial Communications
Bus & Motor
STARLINK, Unknown motor
Mass
260 kg wet, ~248 kg dry
Launch date (UTC)
2020-08-07 (6 years ago)
Launch vehicle
FALCON 9
Launch site
Air Force Eastern Test Range (AFETR)
Object type
Payload
Rocket body
Debris
Shape & HBR
Box + 1 Pan, 10.1 m
Radar Cross Section
13.562 m², Large (>1 m²)

Expand to show TLE details & history
Last TLE update: 19 hours ago

TLE from 19 hours ago
0 STARLINK-1536
1 46070U 20055AV  26263.22053552 -.00000447  00000-0 -26336-5 0  9994
2 46070  53.1617 276.4603 0002191  67.9389 292.1845 15.31693920339044
Epoch: 2026-09-20T05:17Z
TLE epoch observation values (Epoch: 2026-09-20T05:17:34.268Z)
Latitude
-0.00004°
Longitude
-162.05035°
Altitude
471.092 km
Speed
7.632 km/s
True Right ascension
18h 25m 50s
True Declination
0° 00' 00"
Sunlit
Object was in daylight at epoch
Visualization orbit readout
Latitude
Unknown
Longitude
Unknown
Altitude
Unknown
Speed
Unknown
Apparent Right ascension
Unknown
Apparent Declination
Unknown
Sunlit
N/A
Visualization observer readout
Local Sidereal Time
17:26:17
Azimuth
Unknown
Elevation
Unknown
Doppler factor
Unknown
Orbital elements
Apogee altitude
472.515 km
Perigee altitude
469.514 km
Semi-major axis
6,849.151 km
Eccentricity
0.00022
Inclination
53.1617°
RAAN
276.4603°
Arg. of periapsis
67.9389°
True anomaly
292.16125°
Mean anomaly
292.1845°
Eccentric anomaly
292.17287°
Mean motion
3.82902 °/min
Orbital period
94.02 mins
BSTAR
-0.0000026336
Loading maneuver chart data...
Computing Atmospheric mass density...

Documentation

Showing up to 5 results
|